ABW8891 UHHH-UHPP

Flight info

Callsign ABW8891
Flight time N/A
Altitude 37000
Route UHHH TOMSU N222 FI B915 LANRI P176 UB T577 SAMIK UHPP
Aircraft B77L/H-SDE2E3FGHIJ5LORVWXY/LB1D1

Departure

Time 2026-04-20 12:11
Airport Khabarovsk Novy Airport (UHHH)

Arrival

Time N/A
Airport Yelizovo Airport (UHPP)
Time Latitude Longitude Altitude Speed Heading
2026-04-20 11:39 48.52746 135.17656 259 ft 0 kts 311°
2026-04-20 12:03 48.52749 135.17650 259 ft 2 kts 312°
2026-04-20 12:04 48.52769 135.17618 259 ft 6 kts 313°
2026-04-20 12:04 48.52780 135.17569 259 ft 5 kts 267°
2026-04-20 12:04 48.52753 135.17520 259 ft 6 kts 183°
2026-04-20 12:04 48.52708 135.17567 259 ft 9 kts 154°
2026-04-20 12:05 48.52638 135.17535 259 ft 13 kts 217°
2026-04-20 12:05 48.52560 135.17439 259 ft 15 kts 211°
2026-04-20 12:05 48.52462 135.17500 259 ft 18 kts 131°
2026-04-20 12:05 48.52371 135.17651 259 ft 20 kts 132°
2026-04-20 12:06 48.52271 135.17819 259 ft 22 kts 131°
2026-04-20 12:06 48.52166 135.17998 259 ft 18 kts 131°
2026-04-20 12:06 48.52070 135.18079 259 ft 16 kts 194°
2026-04-20 12:06 48.51972 135.17964 259 ft 19 kts 222°
2026-04-20 12:07 48.51868 135.17822 259 ft 22 kts 222°
2026-04-20 12:07 48.51736 135.17644 259 ft 28 kts 221°
2026-04-20 12:07 48.51582 135.17432 259 ft 29 kts 222°
2026-04-20 12:07 48.51501 135.17300 259 ft 16 kts 256°
2026-04-20 12:08 48.51550 135.17148 259 ft 14 kts 313°
2026-04-20 12:08 48.51562 135.17127 259 ft 0 kts 313°
2026-04-20 12:09 48.51584 135.17091 259 ft 10 kts 312°
2026-04-20 12:10 48.51669 135.17030 259 ft 19 kts 20°
2026-04-20 12:10 48.51793 135.17184 259 ft 27 kts 41°
2026-04-20 12:10 48.52007 135.17476 259 ft 69 kts 42°
2026-04-20 12:10 48.52551 135.18218 260 ft 146 kts 43°
2026-04-20 12:11 48.53383 135.19365 732 ft 171 kts 40°
2026-04-20 12:11 48.54198 135.20460 1940 ft 156 kts 39°
2026-04-20 12:11 48.54969 135.21519 2454 ft 163 kts 40°
2026-04-20 12:11 48.55806 135.22681 2831 ft 177 kts 40°
2026-04-20 12:12 48.56724 135.23955 3177 ft 191 kts 40°
2026-04-20 12:12 48.57694 135.25301 3537 ft 209 kts 40°
2026-04-20 12:12 48.58792 135.26828 4006 ft 224 kts 40°
2026-04-20 12:12 48.59952 135.28441 4429 ft 240 kts 40°
2026-04-20 12:13 48.61065 135.29990 4776 ft 254 kts 40°
2026-04-20 12:13 48.62165 135.31523 5204 ft 261 kts 40°
2026-04-20 12:13 48.63662 135.33614 5880 ft 266 kts 40°
2026-04-20 12:13 48.65028 135.35524 6484 ft 270 kts 40°
2026-04-20 12:14 48.66396 135.37437 7086 ft 274 kts 40°
2026-04-20 12:14 48.67793 135.39394 7668 ft 277 kts 40°
2026-04-20 12:14 48.68912 135.40961 8117 ft 280 kts 40°
2026-04-20 12:14 48.70336 135.42960 8674 ft 283 kts 40°
2026-04-20 12:15 48.71753 135.44949 9212 ft 287 kts 40°
2026-04-20 12:15 48.73321 135.47151 9783 ft 290 kts 40°
2026-04-20 12:15 48.74717 135.49114 9997 ft 304 kts 41°
2026-04-20 12:15 48.76333 135.51393 10157 ft 320 kts 42°
2026-04-20 12:16 48.77661 135.53418 10248 ft 333 kts 44°
2026-04-20 12:16 48.79501 135.56339 10340 ft 349 kts 44°
2026-04-20 12:16 48.81185 135.58998 10534 ft 358 kts 44°
2026-04-20 12:16 48.82923 135.61732 10900 ft 361 kts 44°
2026-04-20 12:17 48.84680 135.64494 11299 ft 364 kts 44°
2026-04-20 12:17 48.86438 135.67258 11699 ft 367 kts 45°
2026-04-20 12:17 48.88205 135.70039 12128 ft 370 kts 45°
2026-04-20 12:17 48.90016 135.72890 12599 ft 373 kts 45°
2026-04-20 12:18 48.91810 135.75717 13091 ft 376 kts 45°
2026-04-20 12:18 48.93627 135.78584 13614 ft 379 kts 45°
2026-04-20 12:18 48.95470 135.81496 14169 ft 383 kts 45°
2026-04-20 12:18 48.97311 135.84407 14750 ft 387 kts 45°
2026-04-20 12:19 48.99195 135.87343 15364 ft 390 kts 44°
2026-04-20 12:19 49.01133 135.90274 15973 ft 394 kts 43°
2026-04-20 12:19 49.03070 135.93202 16573 ft 397 kts 43°
2026-04-20 12:19 49.05039 135.96188 17189 ft 401 kts 43°
2026-04-20 12:20 49.07005 135.99173 17788 ft 404 kts 43°
2026-04-20 12:20 49.09011 136.02226 18374 ft 409 kts 43°
2026-04-20 12:20 49.11028 136.05299 18951 ft 413 kts 43°
2026-04-20 12:20 49.13034 136.08360 19523 ft 417 kts 43°
2026-04-20 12:21 49.15091 136.11505 20088 ft 421 kts 43°
2026-04-20 12:21 49.17173 136.14691 20655 ft 425 kts 43°
2026-04-20 12:21 49.19282 136.17925 21217 ft 430 kts 43°
2026-04-20 12:21 49.21397 136.21170 21771 ft 434 kts 43°
2026-04-20 12:22 49.23534 136.24454 22326 ft 438 kts 43°
2026-04-20 12:22 49.25669 136.27739 22908 ft 441 kts 43°
2026-04-20 12:22 49.27843 136.31090 23516 ft 444 kts 43°
2026-04-20 12:22 49.30019 136.34447 24060 ft 449 kts 43°
2026-04-20 12:23 49.32233 136.37866 24593 ft 453 kts 43°
2026-04-20 12:23 49.34464 136.41319 25143 ft 457 kts 43°
2026-04-20 12:23 49.36694 136.44772 25675 ft 462 kts 43°
2026-04-20 12:23 49.38958 136.48285 26212 ft 466 kts 43°
2026-04-20 12:24 49.41246 136.51845 26739 ft 470 kts 43°
2026-04-20 12:24 49.43344 136.55749 27254 ft 477 kts 53°
2026-04-20 12:24 49.45026 136.60169 27782 ft 482 kts 63°
2026-04-20 12:24 49.46292 136.64940 28277 ft 487 kts 69°
2026-04-20 12:25 49.47437 136.69841 28685 ft 493 kts 70°
2026-04-20 12:25 49.48595 136.74869 29129 ft 498 kts 70°
2026-04-20 12:25 49.49745 136.79878 29666 ft 500 kts 70°
2026-04-20 12:25 49.50903 136.84935 30302 ft 499 kts 70°
2026-04-20 12:26 49.52054 136.89973 30995 ft 498 kts 70°
2026-04-20 12:26 49.53191 136.94963 31661 ft 497 kts 70°
2026-04-20 12:26 49.54328 136.99963 32275 ft 497 kts 70°
2026-04-20 12:26 49.55469 137.04993 32886 ft 497 kts 70°
2026-04-20 12:27 49.56606 137.10016 33522 ft 496 kts 70°
2026-04-20 12:27 49.57739 137.15031 34136 ft 495 kts 70°
2026-04-20 12:27 49.58859 137.20001 34698 ft 496 kts 70°
2026-04-20 12:27 49.59996 137.25064 35295 ft 495 kts 70°
2026-04-20 12:28 49.61111 137.30037 35886 ft 493 kts 70°
2026-04-20 12:28 49.62213 137.34963 36447 ft 491 kts 70°
2026-04-20 12:28 49.63327 137.39954 36769 ft 493 kts 71°
2026-04-20 12:28 49.64453 137.45013 36800 ft 495 kts 70°
2026-04-20 12:29 49.66663 137.54974 36796 ft 492 kts 70°
2026-04-20 12:29 49.68874 137.64990 36796 ft 493 kts 70°
2026-04-20 12:30 49.71070 137.74999 36789 ft 492 kts 71°
2026-04-20 12:30 49.73252 137.84990 36794 ft 493 kts 71°
2026-04-20 12:31 49.75441 137.95065 36790 ft 492 kts 71°
2026-04-20 12:31 49.77614 138.05116 36796 ft 492 kts 71°
2026-04-20 12:32 49.79779 138.15173 36797 ft 493 kts 71°
2026-04-20 12:32 49.81924 138.25192 36793 ft 491 kts 71°
2026-04-20 12:33 49.83346 138.31862 36797 ft 492 kts 71°